Location: Worth Mountain WMA
(34.9569°N, 81.4819°W)
Time: 13:35:41
(UTC-05:00)

Cosmos 2263 Rocket - Pass Details

Date: 18 August 2017
Orbit: 825 x 847 km, 71.0° (Epoch: 24 November)

Event Time Altitude Azimuth Distance (km) Brightness Sun altitude
Rises 22:04:31 0° 341° (NNW) 3,414 6.2 -21.9°
Reaches altitude 10° 22:07:00 10° 344° (NNW) 2,475 5.3 -22.4°
Maximum altitude 22:12:39 68° 67° (ENE) 909 2.2 -23.3°
Enters shadow 22:13:41 56° 120° (ESE) 999 2.2 -23.5°
